Wetterdaten: Samstag, 11.10.2014
Datum Zeit Temp. A. Feuchte A. Luftdruck Regen Wind Richtung Richtung Sonnenschein ET UV Solar Taupunkt Windchill Windben Empfang
11.10.2014 00:00 14,3 C 83 % 1013,1 hPa 0,0 l/m 3,2 km/h (1 Bft) SO 138 0 min 0,000 mm 0,0 UV-I 0 W/m 11,5 C 14,3 C 4,0 km/h (1 Bft) 0,00 %
11.10.2014 00:15 14,2 C 83 % 1013,0 hPa 0,0 l/m 0,4 km/h (0 Bft) S-SO 161 0 min 0,000 mm 0,0 UV-I 0 W/m 11,4 C 14,2 C 4,0 km/h (1 Bft) 0,00 %
11.10.2014 00:30 14,1 C 83 % 1013,0 hPa 0,0 l/m 10,4 km/h (2 Bft) O-SO 111 0 min 0,000 mm 0,0 UV-I 0 W/m 11,3 C 11,9 C 11,9 km/h (2 Bft) 0,00 %
11.10.2014 00:45 14,0 C 83 % 1012,7 hPa 0,0 l/m 9,4 km/h (2 Bft) O 91 0 min 0,000 mm 0,0 UV-I 0 W/m 11,2 C 12,3 C 11,9 km/h (2 Bft) 0,00 %
11.10.2014 01:00 13,8 C 83 % 1012,4 hPa 0,0 l/m 2,9 km/h (1 Bft) O 96 0 min 0,000 mm 0,0 UV-I 0 W/m 11,0 C 13,8 C 4,0 km/h (1 Bft) 0,00 %
11.10.2014 01:15 13,8 C 83 % 1012,5 hPa 0,0 l/m 0,7 km/h (0 Bft) O-SO 108 0 min 0,000 mm 0,0 UV-I 0 W/m 11,0 C 13,8 C 4,0 km/h (1 Bft) 0,00 %
11.10.2014 01:30 13,7 C 82 % 1012,5 hPa 0,0 l/m 5,4 km/h (1 Bft) S-SO 168 0 min 0,000 mm 0,0 UV-I 0 W/m 10,7 C 13,7 C 7,9 km/h (2 Bft) 0,00 %
11.10.2014 01:45 13,7 C 83 % 1012,2 hPa 0,0 l/m 4,0 km/h (1 Bft) O-SO 110 0 min 0,000 mm 0,0 UV-I 0 W/m 10,9 C 13,7 C 4,0 km/h (1 Bft) 0,00 %
11.10.2014 02:00 13,6 C 83 % 1012,3 hPa 0,0 l/m 8,3 km/h (2 Bft) S 177 0 min 0,000 mm 0,0 UV-I 0 W/m 10,8 C 12,5 C 11,9 km/h (2 Bft) 0,00 %
11.10.2014 02:15 13,5 C 83 % 1012,2 hPa 0,0 l/m 2,2 km/h (1 Bft) O-SO 120 0 min 0,000 mm 0,0 UV-I 0 W/m 10,7 C 13,5 C 4,0 km/h (1 Bft) 0,00 %
11.10.2014 02:30 13,4 C 83 % 1011,9 hPa 0,0 l/m 9,0 km/h (2 Bft) O 99 0 min 0,000 mm 0,0 UV-I 0 W/m 10,6 C 11,9 C 11,9 km/h (2 Bft) 0,00 %
11.10.2014 02:45 13,5 C 83 % 1011,8 hPa 0,0 l/m 5,4 km/h (1 Bft) O 88 0 min 0,000 mm 0,0 UV-I 0 W/m 10,7 C 13,5 C 7,9 km/h (2 Bft) 0,00 %
11.10.2014 03:00 13,4 C 85 % 1011,8 hPa 0,0 l/m 7,9 km/h (2 Bft) S 173 0 min 0,000 mm 0,0 UV-I 0 W/m 10,9 C 12,5 C 11,9 km/h (2 Bft) 0,00 %
11.10.2014 03:15 13,5 C 84 % 1011,8 hPa 0,0 l/m 2,9 km/h (1 Bft) O-SO 105 0 min 0,000 mm 0,0 UV-I 0 W/m 10,8 C 13,5 C 4,0 km/h (1 Bft) 0,00 %
11.10.2014 03:30 13,4 C 85 % 1011,5 hPa 0,0 l/m 0,4 km/h (0 Bft) O-SO 119 0 min 0,000 mm 0,0 UV-I 0 W/m 10,9 C 13,4 C 4,0 km/h (1 Bft) 0,00 %
11.10.2014 03:45 13,4 C 85 % 1011,8 hPa 0,0 l/m 4,7 km/h (1 Bft) O-SO 102 0 min 0,000 mm 0,0 UV-I 0 W/m 10,9 C 13,4 C 7,9 km/h (2 Bft) 0,00 %
11.10.2014 04:00 13,4 C 85 % 1011,6 hPa 0,0 l/m 3,2 km/h (1 Bft) NW 325 0 min 0,000 mm 0,0 UV-I 0 W/m 10,9 C 13,4 C 4,0 km/h (1 Bft) 0,00 %
11.10.2014 04:15 13,4 C 85 % 1011,5 hPa 0,0 l/m 4,7 km/h (1 Bft) O 92 0 min 0,000 mm 0,0 UV-I 0 W/m 10,9 C 13,4 C 7,9 km/h (2 Bft) 0,00 %
11.10.2014 04:30 13,4 C 85 % 1011,5 hPa 0,0 l/m 1,4 km/h (1 Bft) O 80 0 min 0,000 mm 0,0 UV-I 0 W/m 10,9 C 13,4 C 4,0 km/h (1 Bft) 0,00 %
11.10.2014 04:45 13,4 C 84 % 1011,5 hPa 0,0 l/m 0,0 km/h (0 Bft) SO 133 0 min 0,000 mm 0,0 UV-I 0 W/m 10,8 C 13,4 C 0,0 km/h (0 Bft) 0,00 %
11.10.2014 05:00 13,4 C 83 % 1011,4 hPa 0,0 l/m 6,8 km/h (2 Bft) O-SO 111 0 min 0,000 mm 0,0 UV-I 0 W/m 10,6 C 13,2 C 7,9 km/h (2 Bft) 0,00 %
11.10.2014 05:15 13,5 C 82 % 1011,4 hPa 0,0 l/m 5,8 km/h (2 Bft) O-SO 121 0 min 0,000 mm 0,0 UV-I 0 W/m 10,5 C 13,5 C 7,9 km/h (2 Bft) 0,00 %
11.10.2014 05:30 13,4 C 84 % 1011,2 hPa 0,0 l/m 5,8 km/h (2 Bft) O 96 0 min 0,000 mm 0,0 UV-I 0 W/m 10,8 C 13,4 C 7,9 km/h (2 Bft) 0,00 %
11.10.2014 05:45 13,4 C 84 % 1011,2 hPa 0,0 l/m 1,8 km/h (1 Bft) O-SO 120 0 min 0,000 mm 0,0 UV-I 0 W/m 10,8 C 13,4 C 4,0 km/h (1 Bft) 0,00 %
11.10.2014 06:00 13,3 C 84 % 1011,3 hPa 0,0 l/m 0,0 km/h (0 Bft) S 180 0 min 0,000 mm 0,0 UV-I 0 W/m 10,7 C 13,3 C 0,0 km/h (0 Bft) 0,00 %
11.10.2014 06:15 13,3 C 84 % 1011,2 hPa 0,0 l/m 0,7 km/h (0 Bft) S-SO 148 0 min 0,000 mm 0,0 UV-I 0 W/m 10,7 C 13,3 C 4,0 km/h (1 Bft) 0,00 %
11.10.2014 06:30 13,3 C 84 % 1011,1 hPa 0,0 l/m 1,8 km/h (1 Bft) O-NO 72 0 min 0,000 mm 0,0 UV-I 0 W/m 10,7 C 13,3 C 4,0 km/h (1 Bft) 0,00 %
11.10.2014 06:45 13,2 C 84 % 1011,4 hPa 0,0 l/m 0,7 km/h (0 Bft) O 82 0 min 0,000 mm 0,0 UV-I 0 W/m 10,6 C 13,2 C 4,0 km/h (1 Bft) 0,00 %
11.10.2014 07:00 13,2 C 84 % 1011,4 hPa 0,0 l/m 0,7 km/h (0 Bft) O-SO 114 0 min 0,000 mm 0,0 UV-I 0 W/m 10,6 C 13,2 C 4,0 km/h (1 Bft) 0,00 %
11.10.2014 07:15 13,2 C 83 % 1011,3 hPa 0,0 l/m 0,7 km/h (0 Bft) SO 140 0 min 0,000 mm 0,0 UV-I 0 W/m 10,4 C 13,2 C 4,0 km/h (1 Bft) 0,00 %
11.10.2014 07:30 13,2 C 84 % 1011,7 hPa 0,0 l/m 1,8 km/h (1 Bft) O 97 0 min 0,000 mm 0,0 UV-I 0 W/m 10,6 C 13,2 C 4,0 km/h (1 Bft) 0,00 %
11.10.2014 07:45 13,2 C 84 % 1011,7 hPa 0,0 l/m 0,4 km/h (0 Bft) SO 128 0 min 0,000 mm 0,0 UV-I 1 W/m 10,6 C 13,2 C 4,0 km/h (1 Bft) 0,00 %
11.10.2014 08:00 13,1 C 83 % 1011,6 hPa 0,0 l/m 0,4 km/h (0 Bft) SO 127 0 min 0,000 mm 0,0 UV-I 6 W/m 10,3 C 13,1 C 4,0 km/h (1 Bft) 0,00 %
11.10.2014 08:15 13,2 C 84 % 1011,6 hPa 0,0 l/m 0,0 km/h (0 Bft) SO 125 0 min 0,000 mm 0,0 UV-I 17 W/m 10,6 C 13,2 C 0,0 km/h (0 Bft) 0,00 %
11.10.2014 08:30 13,2 C 83 % 1011,8 hPa 0,0 l/m 0,4 km/h (0 Bft) SO 125 0 min 0,000 mm 0,0 UV-I 25 W/m 10,4 C 13,2 C 4,0 km/h (1 Bft) 0,00 %
11.10.2014 08:45 13,3 C 83 % 1012,2 hPa 0,0 l/m 0,0 km/h (0 Bft) NO 45 0 min 0,000 mm 0,0 UV-I 28 W/m 10,5 C 13,3 C 0,0 km/h (0 Bft) 0,00 %
11.10.2014 09:00 13,2 C 83 % 1011,9 hPa 0,0 l/m 0,0 km/h (0 Bft) N 8 0 min 0,000 mm 1,0 UV-I 42 W/m 10,4 C 13,2 C 0,0 km/h (0 Bft) 0,00 %
11.10.2014 09:15 13,2 C 83 % 1012,3 hPa 0,0 l/m 0,0 km/h (0 Bft) O 84 0 min 0,000 mm 1,0 UV-I 48 W/m 10,4 C 13,2 C 0,0 km/h (0 Bft) 0,00 %
11.10.2014 09:30 13,3 C 84 % 1012,7 hPa 0,0 l/m 0,0 km/h (0 Bft) W 281 0 min 0,000 mm 1,0 UV-I 45 W/m 10,7 C 13,3 C 0,0 km/h (0 Bft) 0,00 %
11.10.2014 09:45 13,3 C 83 % 1012,9 hPa 0,0 l/m 0,0 km/h (0 Bft) SW 216 0 min 0,000 mm 1,0 UV-I 57 W/m 10,5 C 13,3 C 0,0 km/h (0 Bft) 0,00 %
11.10.2014 10:00 13,7 C 82 % 1012,6 hPa 0,0 l/m 0,0 km/h (0 Bft) SW 216 0 min 0,000 mm 1,0 UV-I 65 W/m 10,7 C 13,7 C 0,0 km/h (0 Bft) 0,00 %
11.10.2014 10:15 13,9 C 81 % 1013,2 hPa 0,0 l/m 0,0 km/h (0 Bft) S 184 0 min 0,000 mm 1,0 UV-I 94 W/m 10,7 C 13,9 C 0,0 km/h (0 Bft) 0,00 %
11.10.2014 10:30 14,7 C 77 % 1012,8 hPa 0,0 l/m 0,0 km/h (0 Bft) S-SW 211 0 min 0,000 mm 1,0 UV-I 132 W/m 10,7 C 14,7 C 0,0 km/h (0 Bft) 0,00 %
11.10.2014 10:45 15,2 C 74 % 1012,7 hPa 0,0 l/m 0,0 km/h (0 Bft) SW 215 0 min 0,000 mm 2,0 UV-I 164 W/m 10,6 C 15,2 C 0,0 km/h (0 Bft) 0,00 %
11.10.2014 11:00 15,5 C 73 % 1012,8 hPa 0,0 l/m 0,4 km/h (0 Bft) SW 230 0 min 0,000 mm 1,0 UV-I 147 W/m 10,7 C 15,5 C 4,0 km/h (1 Bft) 0,00 %
11.10.2014 11:15 15,5 C 74 % 1012,7 hPa 0,0 l/m 0,0 km/h (0 Bft) S 191 0 min 0,000 mm 1,0 UV-I 134 W/m 10,9 C 15,5 C 0,0 km/h (0 Bft) 0,00 %
11.10.2014 11:30 15,6 C 72 % 1012,5 hPa 0,0 l/m 0,4 km/h (0 Bft) W-SW 240 0 min 0,000 mm 1,0 UV-I 165 W/m 10,6 C 15,6 C 4,0 km/h (1 Bft) 0,00 %
11.10.2014 11:45 16,3 C 69 % 1011,9 hPa 0,0 l/m 0,0 km/h (0 Bft) SW 226 0 min 0,000 mm 3,0 UV-I 273 W/m 10,6 C 16,3 C 0,0 km/h (0 Bft) 0,00 %
11.10.2014 12:00 17,6 C 66 % 1011,5 hPa 0,0 l/m 0,7 km/h (0 Bft) W 264 0 min 0,000 mm 2,0 UV-I 258 W/m 11,2 C 17,6 C 4,0 km/h (1 Bft) 0,00 %
11.10.2014 12:15 17,4 C 66 % 1011,8 hPa 0,0 l/m 0,0 km/h (0 Bft) S-SW 205 0 min 0,000 mm 2,0 UV-I 231 W/m 11,0 C 17,4 C 0,0 km/h (0 Bft) 0,00 %
11.10.2014 12:30 17,5 C 65 % 1012,4 hPa 0,0 l/m 0,7 km/h (0 Bft) W-SW 256 0 min 0,000 mm 2,0 UV-I 257 W/m 10,8 C 17,5 C 4,0 km/h (1 Bft) 0,00 %
11.10.2014 12:45 17,2 C 67 % 1012,2 hPa 0,0 l/m 0,0 km/h (0 Bft) SW 221 0 min 0,000 mm 3,0 UV-I 282 W/m 11,0 C 17,2 C 0,0 km/h (0 Bft) 0,00 %
11.10.2014 13:00 17,4 C 65 % 1012,0 hPa 0,0 l/m 0,0 km/h (0 Bft) N-NO 31 0 min 0,000 mm 2,0 UV-I 208 W/m 10,8 C 17,4 C 0,0 km/h (0 Bft) 0,00 %
11.10.2014 13:15 17,3 C 66 % 1011,5 hPa 0,0 l/m 0,4 km/h (0 Bft) N-NW 343 0 min 0,000 mm 2,0 UV-I 172 W/m 10,9 C 17,3 C 4,0 km/h (1 Bft) 0,00 %
11.10.2014 13:30 16,8 C 69 % 1011,2 hPa 0,0 l/m 0,0 km/h (0 Bft) S-SW 209 0 min 0,000 mm 2,0 UV-I 167 W/m 11,1 C 16,8 C 0,0 km/h (0 Bft) 0,00 %
11.10.2014 13:45 17,4 C 67 % 1011,2 hPa 0,0 l/m 0,0 km/h (0 Bft) W-SW 253 0 min 0,000 mm 2,0 UV-I 170 W/m 11,2 C 17,4 C 0,0 km/h (0 Bft) 0,00 %
11.10.2014 14:00 17,5 C 65 % 1010,8 hPa 0,0 l/m 0,0 km/h (0 Bft) N-NO 29 0 min 0,000 mm 2,0 UV-I 162 W/m 10,8 C 17,5 C 0,0 km/h (0 Bft) 0,00 %
11.10.2014 14:15 17,7 C 66 % 1011,4 hPa 0,0 l/m 0,0 km/h (0 Bft) SO 142 0 min 0,000 mm 2,0 UV-I 191 W/m 11,3 C 17,7 C 0,0 km/h (0 Bft) 0,00 %
11.10.2014 14:30 18,1 C 65 % 1011,1 hPa 0,0 l/m 0,0 km/h (0 Bft) S 178 0 min 0,000 mm 2,0 UV-I 176 W/m 11,4 C 18,1 C 0,0 km/h (0 Bft) 0,00 %
11.10.2014 14:45 18,0 C 65 % 1011,5 hPa 0,0 l/m 3,2 km/h (1 Bft) W-NW 287 0 min 0,000 mm 2,0 UV-I 161 W/m 11,3 C 18,0 C 4,0 km/h (1 Bft) 0,00 %
11.10.2014 15:00 18,2 C 66 % 1011,4 hPa 0,0 l/m 2,2 km/h (1 Bft) N 353 0 min 0,000 mm 2,0 UV-I 199 W/m 11,7 C 18,2 C 4,0 km/h (1 Bft) 0,00 %
11.10.2014 15:15 18,4 C 64 % 1011,3 hPa 0,0 l/m 0,4 km/h (0 Bft) NW 318 15 min 0,000 mm 2,0 UV-I 276 W/m 11,5 C 18,4 C 4,0 km/h (1 Bft) 0,00 %
11.10.2014 15:30 18,0 C 66 % 1011,0 hPa 0,0 l/m 0,0 km/h (0 Bft) W-NW 283 15 min 0,000 mm 2,0 UV-I 231 W/m 11,6 C 18,0 C 0,0 km/h (0 Bft) 0,00 %
11.10.2014 15:45 18,2 C 66 % 1011,3 hPa 0,0 l/m 0,4 km/h (0 Bft) W-NW 289 15 min 0,000 mm 2,0 UV-I 215 W/m 11,7 C 18,2 C 4,0 km/h (1 Bft) 0,00 %
11.10.2014 16:00 17,7 C 68 % 1011,3 hPa 0,0 l/m 0,0 km/h (0 Bft) SW 227 0 min 0,000 mm 2,0 UV-I 158 W/m 11,7 C 17,7 C 0,0 km/h (0 Bft) 0,00 %
11.10.2014 16:15 17,0 C 69 % 1011,5 hPa 0,0 l/m 0,0 km/h (0 Bft) O-SO 114 0 min 0,000 mm 1,0 UV-I 165 W/m 11,3 C 17,0 C 0,0 km/h (0 Bft) 0,00 %
11.10.2014 16:30 17,2 C 68 % 1011,7 hPa 0,0 l/m 0,0 km/h (0 Bft) SW 230 15 min 0,000 mm 1,0 UV-I 222 W/m 11,2 C 17,2 C 0,0 km/h (0 Bft) 0,00 %
11.10.2014 16:45 17,0 C 68 % 1012,0 hPa 0,0 l/m 0,0 km/h (0 Bft) S-SW 202 0 min 0,000 mm 1,0 UV-I 85 W/m 11,0 C 17,0 C 0,0 km/h (0 Bft) 0,00 %
11.10.2014 17:00 16,4 C 71 % 1012,1 hPa 0,0 l/m 0,0 km/h (0 Bft) S-SW 208 0 min 0,000 mm 1,0 UV-I 56 W/m 11,1 C 16,4 C 0,0 km/h (0 Bft) 0,00 %
11.10.2014 17:15 16,1 C 71 % 1012,3 hPa 0,0 l/m 0,0 km/h (0 Bft) S-SW 211 0 min 0,000 mm 1,0 UV-I 50 W/m 10,8 C 16,1 C 0,0 km/h (0 Bft) 0,00 %
11.10.2014 17:30 15,8 C 72 % 1012,2 hPa 0,0 l/m 0,0 km/h (0 Bft) W-SW 253 0 min 0,000 mm 0,0 UV-I 11 W/m 10,8 C 15,8 C 0,0 km/h (0 Bft) 0,00 %
11.10.2014 17:45 15,6 C 72 % 1012,5 hPa 0,0 l/m 0,0 km/h (0 Bft) S-SW 192 0 min 0,000 mm 0,0 UV-I 0 W/m 10,6 C 15,6 C 0,0 km/h (0 Bft) 0,00 %
11.10.2014 18:00 15,5 C 72 % 1012,6 hPa 0,0 l/m 0,7 km/h (0 Bft) N-NW 342 0 min 0,000 mm 0,0 UV-I 0 W/m 10,5 C 15,5 C 4,0 km/h (1 Bft) 0,00 %
11.10.2014 18:15 15,3 C 73 % 1012,9 hPa 0,0 l/m 0,0 km/h (0 Bft) W-SW 256 0 min 0,000 mm 0,0 UV-I 0 W/m 10,5 C 15,3 C 0,0 km/h (0 Bft) 0,00 %
11.10.2014 18:30 15,0 C 74 % 1013,0 hPa 0,0 l/m 0,4 km/h (0 Bft) SW 232 0 min 0,000 mm 0,0 UV-I 0 W/m 10,4 C 15,0 C 4,0 km/h (1 Bft) 0,00 %
11.10.2014 18:45 14,9 C 74 % 1013,1 hPa 0,0 l/m 0,0 km/h (0 Bft) SW 218 0 min 0,000 mm 0,0 UV-I 0 W/m 10,3 C 14,9 C 0,0 km/h (0 Bft) 0,00 %
11.10.2014 19:00 14,8 C 75 % 1013,4 hPa 0,0 l/m 0,0 km/h (0 Bft) W-NW 293 0 min 0,000 mm 0,0 UV-I 0 W/m 10,4 C 14,8 C 0,0 km/h (0 Bft) 0,00 %
11.10.2014 19:15 14,8 C 75 % 1013,4 hPa 0,0 l/m 0,0 km/h (0 Bft) SO 124 0 min 0,000 mm 0,0 UV-I 0 W/m 10,4 C 14,8 C 0,0 km/h (0 Bft) 0,00 %
11.10.2014 19:30 14,6 C 77 % 1013,5 hPa 0,0 l/m 0,4 km/h (0 Bft) N-NW 327 0 min 0,000 mm 0,0 UV-I 0 W/m 10,6 C 14,6 C 4,0 km/h (1 Bft) 0,00 %
11.10.2014 19:45 14,6 C 78 % 1013,5 hPa 0,0 l/m 0,0 km/h (0 Bft) N-NW 339 0 min 0,000 mm 0,0 UV-I 0 W/m 10,8 C 14,6 C 0,0 km/h (0 Bft) 0,00 %
11.10.2014 20:00 14,5 C 80 % 1013,6 hPa 0,3 l/m 0,0 km/h (0 Bft) W-SW 253 0 min 0,000 mm 0,0 UV-I 0 W/m 11,1 C 14,5 C 0,0 km/h (0 Bft) 0,00 %
11.10.2014 20:15 14,4 C 82 % 1013,6 hPa 0,0 l/m 0,0 km/h (0 Bft) SW 221 0 min 0,000 mm 0,0 UV-I 0 W/m 11,4 C 14,4 C 0,0 km/h (0 Bft) 0,00 %
11.10.2014 20:30 14,3 C 82 % 1013,7 hPa 0,0 l/m 0,0 km/h (0 Bft) S 180 0 min 0,000 mm 0,0 UV-I 0 W/m 11,3 C 14,3 C 0,0 km/h (0 Bft) 0,00 %
11.10.2014 20:45 14,2 C 82 % 1014,0 hPa 0,0 l/m 0,0 km/h (0 Bft) S-SW 193 0 min 0,000 mm 0,0 UV-I 0 W/m 11,2 C 14,2 C 0,0 km/h (0 Bft) 0,00 %
11.10.2014 21:00 14,1 C 83 % 1013,9 hPa 0,0 l/m 0,0 km/h (0 Bft) S-SW 193 0 min 0,000 mm 0,0 UV-I 0 W/m 11,3 C 14,1 C 0,0 km/h (0 Bft) 0,00 %
11.10.2014 21:15 14,1 C 83 % 1014,2 hPa 0,0 l/m 0,0 km/h (0 Bft) S-SW 207 0 min 0,000 mm 0,0 UV-I 0 W/m 11,3 C 14,1 C 0,0 km/h (0 Bft) 0,00 %
11.10.2014 21:30 14,1 C 83 % 1014,3 hPa 0,6 l/m 0,0 km/h (0 Bft) S 191 0 min 0,000 mm 0,0 UV-I 0 W/m 11,3 C 14,1 C 0,0 km/h (0 Bft) 0,00 %
11.10.2014 21:45 14,1 C 84 % 1014,3 hPa 0,9 l/m 0,0 km/h (0 Bft) S 191 0 min 0,000 mm 0,0 UV-I 0 W/m 11,4 C 14,1 C 0,0 km/h (0 Bft) 0,00 %
11.10.2014 22:00 14,0 C 84 % 1014,7 hPa 0,3 l/m 0,0 km/h (0 Bft) S-SW 198 0 min 0,000 mm 0,0 UV-I 0 W/m 11,3 C 14,0 C 0,0 km/h (0 Bft) 0,00 %
11.10.2014 22:15 14,0 C 84 % 1014,7 hPa 0,3 l/m 0,0 km/h (0 Bft) S-SW 204 0 min 0,000 mm 0,0 UV-I 0 W/m 11,3 C 14,0 C 0,0 km/h (0 Bft) 0,00 %
11.10.2014 22:30 14,0 C 85 % 1014,5 hPa 0,6 l/m 0,0 km/h (0 Bft) S 175 0 min 0,000 mm 0,0 UV-I 0 W/m 11,5 C 14,0 C 0,0 km/h (0 Bft) 0,00 %
11.10.2014 22:45 14,1 C 85 % 1014,9 hPa 0,3 l/m 0,0 km/h (0 Bft) S 173 0 min 0,000 mm 0,0 UV-I 0 W/m 11,6 C 14,1 C 0,0 km/h (0 Bft) 0,00 %
11.10.2014 23:00 14,1 C 85 % 1014,9 hPa 0,0 l/m 0,0 km/h (0 Bft) S-SO 164 0 min 0,000 mm 0,0 UV-I 0 W/m 11,6 C 14,1 C 0,0 km/h (0 Bft) 0,00 %
11.10.2014 23:15 14,0 C 85 % 1014,9 hPa 0,0 l/m 0,0 km/h (0 Bft) S 181 0 min 0,000 mm 0,0 UV-I 0 W/m 11,5 C 14,0 C 0,0 km/h (0 Bft) 0,00 %
11.10.2014 23:30 13,9 C 85 % 1014,8 hPa 0,0 l/m 0,0 km/h (0 Bft) S 181 0 min 0,000 mm 0,0 UV-I 0 W/m 11,4 C 13,9 C 0,0 km/h (0 Bft) 0,00 %
11.10.2014 23:45 13,8 C 85 % 1014,9 hPa 0,0 l/m 0,0 km/h (0 Bft) S 181 0 min 0,000 mm 0,0 UV-I 0 W/m 11,3 C 13,8 C 0,0 km/h (0 Bft) 0,00 %
_ Min-Zeit 08:00 15:15 14:00 - 04:45 - - - - - - 08:00 02:30 04:45 00:00
Minimum _ 13,1 C 64 % 1010,8 hPa - 0,0 km/h (0 Bft) - - - - - - 10,3 C 11,9 C 0,0 km/h (0 Bft) 0,00 %
_ Max-Zeit 15:15 03:00 22:45 21:45 00:30 - - 15:15 00:00 11:45 12:45 15:00 15:15 00:30 00:00
Maximum _ 18,4 C 85 % 1014,9 hPa 0,9 l/m 10,4 km/h
O-SO (2 Bft)
- - 15 min 0,000 mm 3,0 UV-I 282 W/m 11,7 C 18,4 C 11,9 km/h
O-SO (2 Bft)
0,00 %
Durchschnitt _ 14,8 C 78 % 1012,4 hPa #3,3 l/m 1,3 km/h (1 Bft) O - #1:00 h #0,000 mm 1,6 UV-I 139 W/m 10,9 C 14,7 C 2,5 km/h (1 Bft) 0,00 %